GW6410 Weather Reports


time (UTC)temp
C
wind
direction
speed
KPH
gust
KPH
rain 1hr
cm
rain 24hr
cm
rain mn
cm
humidity
%
barometer
mb
20260504151006 20 245 3.2 8.0 0.00 0.00 0.00 48 1018.7
20260504150506 20 221 3.2 8.0 0.00 0.00 0.00 48 1018.6
20260504141006 17 124 0.0 3.2 0.00 0.00 0.00 57 1018.8
20260504140505 17 197 1.6 3.2 0.00 0.00 0.00 60 1018.9
20260504130503 11 221 0.0 0.0 0.00 0.00 0.00 79 1018.8
20260504110503 5 231 0.0 0.0 0.00 0.00 0.00 91 1018.4
20260504100511 5 231 0.0 1.6 0.00 0.00 0.00 90 1018.1
20260504082004 6 238 0.0 0.0 0.00 0.00 0.00 88 1018.1
20260504081515 6 238 0.0 0.0 0.00 0.00 0.00 88 1018.1
20260504081007 6 238 0.0 0.0 0.00 0.00 0.00 88 1018.1
20260504080506 6 238 0.0 0.0 0.00 0.00 0.00 88 1018.3
20260504050504 8 238 0.0 0.0 0.00 0.00 0.00 78 1018.6
20260504050014 8 238 0.0 1.6 0.00 0.00 0.00 79 1018.6
20260504045505 8 238 0.0 1.6 0.00 0.00 0.00 79 1018.7
20260504045002 8 238 0.0 1.6 0.00 0.00 0.00 79 1018.6
20260504044509 8 238 0.0 0.0 0.00 0.00 0.00 80 1018.8
20260504044005 8 238 0.0 0.0 0.00 0.00 0.00 79 1018.7
20260504043505 8 238 0.0 0.0 0.00 0.00 0.00 78 1018.7
20260504043020 8 238 0.0 0.0 0.00 0.00 0.00 78 1018.6
20260504042507 8 238 0.0 0.0 0.00 0.00 0.00 78 1018.7
20260504042008 8 238 0.0 0.0 0.00 0.00 0.00 78 1018.7
20260504041521 8 238 0.0 0.0 0.00 0.00 0.00 79 1018.7
20260504041007 8 238 0.0 0.0 0.00 0.00 0.00 79 1018.7
20260504040507 9 238 0.0 0.0 0.00 0.00 0.00 78 1018.8
20260504040024 9 238 0.0 0.0 0.00 0.00 0.00 78 1018.8
20260504035512 9 238 0.0 1.6 0.00 0.00 0.00 77 1018.8
20260504035003 10 238 0.0 1.6 0.00 0.00 0.00 76 1018.8
20260504034508 10 238 0.0 1.6 0.00 0.00 0.00 75 1018.8
20260504034002 9 227 0.0 1.6 0.00 0.00 0.00 77 1018.8
20260504033502 10 226 0.0 0.0 0.00 0.00 0.00 78 1018.8
20260504033013 10 226 0.0 1.6 0.00 0.00 0.00 77 1018.9
20260504032506 10 226 0.0 1.6 0.00 0.00 0.00 77 1018.9
20260504032009 10 226 0.0 0.0 0.00 0.00 0.00 76 1018.8
20260504031523 10 226 0.0 1.6 0.00 0.00 0.00 74 1018.9
20260504031008 11 226 0.0 1.6 0.00 0.00 0.00 73 1018.8
20260504030507 11 226 0.0 1.6 0.00 0.00 0.00 71 1018.8
20260504030021 11 278 0.0 1.6 0.00 0.00 0.00 71 1018.8
20260504025507 11 278 0.0 1.6 0.00 0.00 0.00 72 1018.8
20260504025007 11 272 0.0 1.6 0.00 0.00 0.00 71 1018.7
20260504024524 11 278 0.0 1.6 0.00 0.00 0.00 73 1018.7
20260504024010 11 278 0.0 1.6 0.00 0.00 0.00 72 1018.6
20260504023504 11 278 0.0 1.6 0.00 0.00 0.00 70 1018.5
20260504023016 11 278 0.0 1.6 0.00 0.00 0.00 67 1018.5
20260504022508 12 278 0.0 1.6 0.00 0.00 0.00 67 1018.4
20260504022004 12 278 0.0 1.6 0.00 0.00 0.00 64 1018.4
20260504021517 12 278 0.0 1.6 0.00 0.00 0.00 66 1018.4
20260504021004 12 265 0.0 1.6 0.00 0.00 0.00 64 1018.2
20260504020508 12 265 0.0 1.6 0.00 0.00 0.00 65 1018.3
20260504020019 12 266 0.0 1.6 0.00 0.00 0.00 64 1018.2
20260504015508 12 265 0.0 1.6 0.00 0.00 0.00 65 1018.1
20260504015008 12 266 0.0 1.6 0.00 0.00 0.00 66 1018.0
20260504014526 12 255 0.0 1.6 0.00 0.00 0.00 66 1017.9
20260504014007 12 255 0.0 1.6 0.00 0.00 0.00 67 1017.9
20260504013510 12 255 0.0 1.6 0.00 0.00 0.00 68 1017.9
20260504013033 12 255 0.0 1.6 0.00 0.00 0.00 68 1017.8
20260504012510 12 255 0.0 1.6 0.00 0.00 0.00 65 1017.7
20260504012009 12 255 0.0 1.6 0.00 0.00 0.00 65 1017.6
20260504011513 12 254 0.0 0.0 0.00 0.00 0.00 66 1017.7
20260504011004 13 254 0.0 0.0 0.00 0.00 0.00 65 1017.7
20260504010505 13 254 0.0 0.0 0.00 0.00 0.00 64 1017.6
20260504010018 13 254 0.0 0.0 0.00 0.00 0.00 61 1017.6
20260504005505 14 254 0.0 0.0 0.00 0.00 0.00 60 1017.5
20260504005008 14 254 0.0 0.0 0.00 0.00 0.00 57 1017.5
20260504004523 15 254 0.0 1.6 0.00 0.00 0.00 56 1017.5
20260504004009 15 254 0.0 1.6 0.00 0.00 0.00 54 1017.4
20260504003512 15 254 0.0 1.6 0.00 0.00 0.00 53 1017.4
20260504003035 16 254 0.0 1.6 0.00 0.00 0.00 51 1017.4
20260504002506 16 254 0.0 1.6 0.00 0.00 0.00 50 1017.4
20260504002010 16 254 0.0 0.0 0.00 0.00 0.00 47 1017.4
20260504001528 16 254 0.0 0.0 0.00 0.00 0.00 45 1017.3
20260504001009 17 254 0.0 1.6 0.00 0.00 0.00 44 1017.3
20260504000509 17 254 0.0 1.6 0.00 0.00 0.00 44 1017.3
20260504000031 17 254 0.0 1.6 0.00 0.00 0.00 43 1017.2
20260503235506 17 254 0.0 1.6 0.00 0.00 0.00 42 1017.2
20260503235004 18 254 0.0 1.6 0.00 0.00 0.00 41 1017.2
20260503234518 18 254 0.0 1.6 0.00 0.00 0.00 42 1017.2
20260503234007 18 255 0.0 1.6 0.00 0.00 0.00 41 1017.2
20260503233507 18 240 0.0 3.2 0.00 0.00 0.00 39 1017.2
20260503233020 18 224 0.0 3.2 0.00 0.00 0.00 38 1017.1
20260503232505 19 234 0.0 6.4 0.00 0.00 0.00 38 1017.1
20260503232010 19 234 0.0 6.4 0.00 0.00 0.00 36 1017.1
20260503231524 20 285 0.0 4.8 0.00 0.00 0.00 36 1017.1
20260503231011 20 192 0.0 4.8 0.00 0.00 0.00 35 1017.2
20260503230509 20 209 1.6 6.4 0.00 0.00 0.00 33 1017.1
20260503230026 20 219 1.6 6.4 0.00 0.00 0.00 33 1017.1
20260503225509 20 276 0.0 4.8 0.00 0.00 0.00 33 1017.1
20260503225012 21 309 1.6 3.2 0.00 0.00 0.00 32 1017.1
20260503224513 21 300 0.0 6.4 0.00 0.00 0.00 33 1017.1
20260503224006 22 293 1.6 6.4 0.00 0.00 0.00 31 1017.1
20260503223506 22 326 0.0 4.8 0.00 0.00 0.00 31 1017.1
20260503223019 22 46 0.0 4.8 0.00 0.00 0.00 30 1017.1
20260503222505 22 285 0.0 4.8 0.00 0.00 0.00 31 1017.1
20260503222009 22 257 1.6 4.8 0.00 0.00 0.00 31 1017.1
20260503221525 22 345 1.6 4.8 0.00 0.00 0.00 30 1017.1
20260503221012 22 354 1.6 6.4 0.00 0.00 0.00 31 1017.2
20260503220510 22 281 3.2 6.4 0.00 0.00 0.00 30 1017.2
20260503220026 22 284 1.6 8.0 0.00 0.00 0.00 30 1017.1
20260503215512 22 262 1.6 8.0 0.00 0.00 0.00 30 1017.2
20260503215014 22 355 1.6 9.7 0.00 0.00 0.00 30 1017.1
20260503214527 22 254 3.2 9.7 0.00 0.00 0.00 30 1017.2
20260503214014 22 115 3.2 9.7 0.00 0.00 0.00 30 1017.1
20260503213516 22 323 1.6 8.0 0.00 0.00 0.00 31 1017.3
20260503213024 22 353 1.6 8.0 0.00 0.00 0.00 31 1017.3
20260503212505 22 297 1.6 6.4 0.00 0.00 0.00 30 1017.3
20260503212006 22 220 0.0 6.4 0.00 0.00 0.00 33 1017.3
20260503211521 22 323 1.6 8.0 0.00 0.00 0.00 31 1017.5
20260503211007 22 255 1.6 9.7 0.00 0.00 0.00 32 1017.4
20260503210509 22 321 3.2 9.7 0.00 0.00 0.00 30 1017.3
20260503210004 22 349 3.2 9.7 0.00 0.00 0.00 33 1017.5
20260503205506 22 322 3.2 4.8 0.00 0.00 0.00 34 1017.6
20260503205007 22 313 1.6 4.8 0.00 0.00 0.00 32 1017.7
20260503204507 22 335 1.6 9.7 0.00 0.00 0.00 34 1017.7
20260503204005 22 95 3.2 12.9 0.00 0.00 0.00 32 1017.7
20260503203505 22 335 3.2 12.9 0.00 0.00 0.00 33 1017.7
20260503203020 21 89 1.6 8.0 0.00 0.00 0.00 34 1017.8
20260503202506 22 125 3.2 11.3 0.00 0.00 0.00 31 1017.9
20260503202006 22 187 1.6 11.3 0.00 0.00 0.00 35 1018.0
20260503201516 22 231 1.6 8.0 0.00 0.00 0.00 33 1018.1
20260503201006 22 349 1.6 6.4 0.00 0.00 0.00 33 1018.2
20260503200512 22 311 1.6 6.4 0.00 0.00 0.00 31 1018.3
20260503200022 22 288 1.6 6.4 0.00 0.00 0.00 35 1018.4
20260503195503 22 14 0.0 6.4 0.00 0.00 0.00 34 1018.4
20260503195005 22 352 0.0 4.8 0.00 0.00 0.00 37 1018.5
20260503194504 22 286 1.6 4.8 0.00 0.00 0.00 37 1018.5
20260503194004 22 262 1.6 6.4 0.00 0.00 0.00 34 1018.6
20260503193505 21 121 0.0 8.0 0.00 0.00 0.00 34 1018.7
20260503193024 22 158 3.2 11.3 0.00 0.00 0.00 34 1018.8
20260503192504 21 290 1.6 11.3 0.00 0.00 0.00 34 1019.1
20260503192006 21 259 1.6 9.7 0.00 0.00 0.00 35 1019.0
20260503191514 21 103 0.0 11.3 0.00 0.00 0.00 36 1019.2
20260503191004 21 282 4.8 11.3 0.00 0.00 0.00 35 1019.4
20260503190507 21 254 3.2 6.4 0.00 0.00 0.00 36 1019.4
20260503190023 20 253 1.6 8.0 0.00 0.00 0.00 38 1019.5
20260503185507 21 6 3.2 8.0 0.00 0.00 0.00 37 1019.5
20260503185008 21 326 1.6 8.0 0.00 0.00 0.00 38 1019.7
20260503184524 20 322 3.2 9.7 0.00 0.00 0.00 37 1019.7
20260503184004 20 198 4.8 9.7 0.00 0.00 0.00 38 1019.7
20260503183503 20 139 1.6 9.7 0.00 0.00 0.00 36 1019.7
20260503183029 20 134 1.6 9.7 0.00 0.00 0.00 38 1019.8
20260503182503 20 218 1.6 6.4 0.00 0.00 0.00 38 1019.9
20260503182003 20 335 1.6 8.0 0.00 0.00 0.00 38 1020.0
20260503181509 20 257 3.2 8.0 0.00 0.00 0.00 38 1019.9
20260503181005 20 285 3.2 6.4 0.00 0.00 0.00 38 1019.9
20260503180505 20 186 0.0 6.4 0.00 0.00 0.00 39 1020.0
20260503180024 20 11 3.2 9.7 0.00 0.00 0.00 37 1020.0
20260503175505 20 296 3.2 9.7 0.00 0.00 0.00 37 1020.0
20260503175008 20 302 3.2 6.4 0.00 0.00 0.00 41 1020.0
20260503174520 20 291 1.6 8.0 0.00 0.00 0.00 41 1020.0
20260503174010 20 278 3.2 8.0 0.00 0.00 0.00 38 1020.0
20260503173506 20 83 0.0 8.0 0.00 0.00 0.00 41 1020.0
20260503173039 19 338 3.2 8.0 0.00 0.00 0.00 42 1020.0
20260503172510 19 344 3.2 9.7 0.00 0.00 0.00 43 1020.0
20260503172006 19 280 1.6 11.3 0.00 0.00 0.00 41 1020.2
20260503171508 20 145 3.2 11.3 0.00 0.00 0.00 42 1020.2
20260503171004 19 325 1.6 8.0 0.00 0.00 0.00 47 1020.2
20260503170503 18 110 3.2 8.0 0.00 0.00 0.00 40 1020.3